Flag for Canada Weather past 2 weeks in Rainy River, Ontario, Canada

Now
61 °F

Partly sunny.


Feels Like: 61 °F
Forecast: 49 / 61 °F
Wind: 17 mph from Northwest

Location: Baudette International Airport

Current Time: Jul 6, 2015 at 3:13:19 PM

Latest Report: Jul 6, 2015 at 1:53 PM


Visibility: 10 mi

Pressure: 30.02 "Hg

Humidity: 58%

Dew point: 46 °F

Location of Rainy RiverLocation

Historic Weather in Rainy River — Graph

°F

Rainy River temperature yesterday

Maximum temperature yesterday: 73 °F (at 9:53 AM)
Minimum temperature yesterday: 62 °F (at 12:53 AM)
Average temperature yesterday: 68 °F

Past Weeks' High & Low Weather Summary

 TemperatureHumidityPressure
High83 °F (Jun 26, 3:53 PM)100% (Jun 25, 4:53 AM)30.11 "Hg (Jun 25, 4:53 AM)
Low47 °F (Jun 23, 5:53 AM)31% (Jun 26, 2:53 PM)29.63 "Hg (Jun 22, 9:53 AM)
Average66 °F72%29.91 "Hg
* Reported Jun 21 1:53 PM — Jul 6 1:53 PM, Rainy River, Weather by CustomWeather, © 2015

Note: Actual official high and low records may vary slightly from our data, if they occured in-between our weather recording intervals... More about our weather records

Advertising

Rainy River weather history for previous 24 hours

 ConditionsComfort  
Time TempWeatherWind HumidityBarometerVisibility
1:53 PM
Mon, Jul 6
61 °FPartly sunny.17 mph58%30.02 "Hg10 mi
12:53 PM58 °FPartly sunny.18 mph65%30.03 "Hg10 mi
11:53 AM57 °FLight rain. Partly sunny.18 mph67%30.03 "Hg10 mi
10:53 AM56 °FScattered clouds.21 mph67%30.02 "Hg10 mi
9:53 AM57 °FSunny.18 mph62%30.01 "Hg10 mi
8:53 AM56 °FPassing clouds.16 mph70%30.00 "Hg10 mi
7:53 AM55 °FSunny.14 mph74%29.98 "Hg10 mi
6:53 AM55 °FSunny.16 mph67%29.97 "Hg10 mi
5:53 AM57 °FClear.16 mph78%29.93 "Hg10 mi
4:53 AM58 °FPassing clouds.13 mph78%29.92 "Hg9 mi
3:53 AM62 °FMostly cloudy.10 mph80%29.93 "Hg2 mi
2:53 AM64 °FMostly cloudy.8 mph84%29.90 "Hg2 mi
1:53 AM61 °FFog.5 mph90%29.88 "Hg2 mi
12:53 AM64 °FOvercast.7 mph81%29.87 "Hg2 mi
11:53 PM
Sun, Jul 5
64 °FOvercast.8 mph84%29.85 "Hg4 mi
10:53 PM65 °FOvercast.8 mph85%29.83 "Hg4 mi
9:53 PM67 °FPartly sunny.10 mph81%29.81 "Hg5 mi
8:53 PM66 °FScattered clouds.5 mph87%29.81 "Hg10 mi
7:53 PM71 °FOvercast.9 mph73%29.79 "Hg10 mi
6:53 PM72 °FPartly sunny.12 mph78%29.76 "Hg10 mi
5:53 PM71 °FMostly cloudy.10 mph81%29.77 "Hg10 mi
4:53 PM71 °FLight rain. Partly sunny.6 mph81%29.74 "Hg10 mi
3:53 PM69 °FLight rain. More clouds than sun.3 mph84%29.71 "Hg10 mi
Weather by CustomWeather, © 2015

See weather overviewHow to use our weather pages